CZ-3C R/B, 65487

Orbit data source: Space-Track

CZ-3C R/B, 65487 is space debris in HEO originally from a launch on Fri, 05 Sep 2025 UTC launched from the Xichang Space Center, China (XSC). Debris objects in space refer to the collection of defunct objects orbiting the Earth. Examples of debris include non-operational satellites, rocket bodies, and fragments generated from explosions, collisions, or faulty payload assembly.

Loading next visibility...
Identifier
65487, 2025-196B
Orbit
HEO
Country
Flag of CNCN / PRC
Related business
Manufacturer
CALT
Mission
Spacecraft
Bus & Motor
CZ-3C STAGE 3, Unknown motor
Mass
~2,800 kg wet, ~2,800 kg dry
Launch date (UTC)
2025-09-05 (2 weeks ago)
Launch vehicle
Unknown
Launch site
Xichang Space Center, China (XSC)
Object type
Payload
Rocket body
Debris
Shape & HBR
Unknown
Radar Cross Section
Large (>1 m²)

Expand to show TLE details & history
Last TLE update: 1 week ago

TLE from 1 week ago
0 CZ-3C R/B
1 65487U 25196B   25251.41819693  .00025655  00000-0  33348-2 0  9995
2 65487  28.4934  20.6057 6976947 130.0484 315.6750  2.68841397   106
Epoch: 2025-09-08T10:02Z
TLE epoch observation values (Epoch: 2025-09-08T10:02:12.214Z)
Latitude
0.00003°
Longitude
-117.68199°
Altitude
13,947.152 km
Speed
4.58 km/s
True Right ascension
01h 22m 22s
True Declination
0° 00' 00"
Sunlit
Object was in daylight at epoch
Visualization orbit readout
Latitude
Unknown
Longitude
Unknown
Altitude
Unknown
Speed
Unknown
Apparent Right ascension
Unknown
Apparent Declination
Unknown
Sunlit
N/A
Visualization observer readout
Local Sidereal Time
00:37:40
Azimuth
Unknown
Elevation
Unknown
Doppler factor
Unknown
Orbital elements
Apogee altitude
30,718.63 km
Perigee altitude
227.614 km
Semi-major axis
21,851.259 km
Eccentricity
0.69769
Inclination
28.4934°
RAAN
20.6057°
Arg. of periapsis
130.0484°
True anomaly
230.15357°
Mean anomaly
315.675°
Eccentric anomaly
275.91271°
Mean motion
0.67194 °/min
Orbital period
535.76 mins
BSTAR
0.0033348
Loading maneuver chart data...
Computing Atmospheric mass density...
Loading historical data...
Loading historical data...
Loading historical data...
Loading historical data...
Loading historical data...
Loading historical data...
Loading historical data...
Other satellites on launch #196 in the year 2025 (2025-09-05 UTC)

Documentation

Showing up to 5 results
|